Location: Beekmeers
(50.8953°N, 3.6968°E)
Time: 17:36:12
(UTC+00:00)

H-2A R/B - Pass Details

Date: 12 August 2024
Orbit: 566 x 633 km, 98.4° (Epoch: 06 September)

Event Time Altitude Azimuth Distance (km) Brightness Sun altitude
Rises 00:13:08 0° 15° (NNE) 2,845 6.8 -24.0°
Reaches altitude 10° 00:15:17 10° 16° (NNE) 1,950 5.7 -24.0°
Enters shadow 00:19:29 83° 88° (E) 620 1.9 -23.9°
